When you browse on this site, cookies collect data to enhance your experience and personalize the content and advertising you see.
Visit our Privacy Policy to learn more. By continuing to use the site, you agree to this use of cookies and data.
  • In Spain
  • List of Countries
  • For 7 days
  • Water Temperature
  • Satellite Maps
  • Weather Map
  • Weather Widgets
  • user-avatar
    Login

    Hourly Weather Iowa City

    Today, 16 June, Sunday

    Time Temperature Precipitation Wind Pressure Humidity
    00:00 +19°C° 0 mm 2 mps 735 mmHg 95%
    01:00 +18°C° 0 mm 2 mps 735 mmHg 96%
    02:00 +18°C° 0 mm 2 mps 735 mmHg 97%
    03:00 +17°C° 0 mm 2 mps 735 mmHg 98%
    04:00 +17°C° 0 mm 3 mps 736 mmHg 97%
    05:00 +18°C° 0 mm 3 mps 736 mmHg 96%
    06:00 +18°C° 0 mm 3 mps 736 mmHg 96%
    07:00 +18°C° 0 mm 2 mps 737 mmHg 93%
    08:00 +18°C° 0 mm 2 mps 738 mmHg 91%
    09:00 +19°C° 0 mm 2 mps 738 mmHg 89%
    10:00 +19°C° 0 mm 2 mps 738 mmHg 88%
    11:00 +20°C° 0 mm 3 mps 738 mmHg 86%
    12:00 +20°C° 0 mm 3 mps 738 mmHg 84%
    13:00 +21°C° 0 mm 3 mps 738 mmHg 83%
    14:00 +21°C° 0 mm 3 mps 738 mmHg 82%
    15:00 +21°C° 0 mm 2 mps 739 mmHg 81%
    16:00 +21°C° 0 mm 2 mps 739 mmHg 83%
    17:00 +20°C° 0 mm 2 mps 739 mmHg 85%
    18:00 +20°C° 0 mm 2 mps 739 mmHg 88%
    19:00 +19°C° 0 mm 2 mps 739 mmHg 90%
    20:00 +18°C° 0 mm 3 mps 739 mmHg 92%
    21:00 +17°C° 0 mm 3 mps 739 mmHg 94%
    22:00 +16°C° 0 mm 3 mps 739 mmHg 95%
    23:00 +15°C° 0 mm 2 mps 739 mmHg 96%

    Tomorrow, 17 June, Monday

    Time Temperature Precipitation Wind Pressure Humidity
    00:00 +14°C° 0 mm 2 mps 740 mmHg 97%
    01:00 +14°C° 0 mm 2 mps 740 mmHg 97%
    02:00 +14°C° 0 mm 2 mps 740 mmHg 97%
    03:00 +13°C° 0 mm 2 mps 740 mmHg 97%
    04:00 +13°C° 0 mm 2 mps 740 mmHg 96%
    05:00 +13°C° 0 mm 2 mps 741 mmHg 96%
    06:00 +13°C° 0 mm 3 mps 741 mmHg 95%
    07:00 +14°C° 0 mm 3 mps 741 mmHg 91%
    08:00 +16°C° 0 mm 3 mps 741 mmHg 88%
    09:00 +18°C° 0 mm 3 mps 741 mmHg 85%
    10:00 +19°C° 0 mm 3 mps 741 mmHg 84%
    11:00 +19°C° 0 mm 3 mps 741 mmHg 83%
    12:00 +20°C° 0 mm 3 mps 741 mmHg 82%
    13:00 +20°C° 0 mm 3 mps 741 mmHg 83%
    14:00 +21°C° 0 mm 3 mps 740 mmHg 83%
    15:00 +21°C° 0 mm 3 mps 740 mmHg 84%
    16:00 +21°C° 0 mm 2 mps 740 mmHg 85%
    17:00 +21°C° 0 mm 2 mps 740 mmHg 86%
    18:00 +21°C° 0 mm 1 mps 740 mmHg 87%
    19:00 +21°C° 0 mm 1 mps 740 mmHg 87%
    20:00 +21°C° 0 mm 1 mps 740 mmHg 87%
    21:00 +20°C° 0 mm 1 mps 741 mmHg 88%
    22:00 +20°C° 0 mm 1 mps 740 mmHg 87%
    23:00 +20°C° 0 mm 1 mps 740 mmHg 87%

    Day after tomorrow, 18 June, Tuesday

    Time Temperature Precipitation Wind Pressure Humidity
    00:00 +20°C° 0 mm 1 mps 740 mmHg 87%
    01:00 +19°C° 0 mm 1 mps 740 mmHg 88%
    02:00 +18°C° 0 mm 1 mps 740 mmHg 90%
    03:00 +16°C° 0 mm 1 mps 740 mmHg 92%
    04:00 +18°C° 0 mm 1 mps 740 mmHg 92%
    05:00 +18°C° 0 mm 1 mps 740 mmHg 91%
    06:00 +19°C° 0 mm 1 mps 740 mmHg 91%
    07:00 +20°C° 0 mm 1 mps 740 mmHg 87%
    08:00 +21°C° 0 mm 1 mps 741 mmHg 82%
    09:00 +23°C° 0 mm 1 mps 741 mmHg 77%
    10:00 +23°C° 0 mm 1 mps 740 mmHg 76%
    11:00 +22°C° 0 mm 0 mps 740 mmHg 75%
    12:00 +22°C° 0 mm 0 mps 740 mmHg 74%
    13:00 +23°C° 0 mm 0 mps 740 mmHg 73%
    14:00 +23°C° 0 mm 0 mps 739 mmHg 71%
    15:00 +24°C° 0 mm 0 mps 739 mmHg 70%
    16:00 +25°C° 0 mm 1 mps 738 mmHg 73%
    17:00 +25°C° 0 mm 1 mps 738 mmHg 76%
    18:00 +25°C° 0 mm 1 mps 738 mmHg 79%
    19:00 +24°C° 0.1 mm 1 mps 738 mmHg 81%
    20:00 +23°C° 0.1 mm 1 mps 738 mmHg 84%
    21:00 +19°C° 0.1 mm 0 mps 738 mmHg 87%
    22:00 +21°C° 1.2 mm 1 mps 738 mmHg 90%
    23:00 +21°C° 1.2 mm 1 mps 737 mmHg 93%

    19 June, Wednesday

    Time Temperature Precipitation Wind Pressure Humidity
    00:00 +20°C° 1.2 mm 1 mps 737 mmHg 97%
    01:00 +19°C° 0.7 mm 2 mps 737 mmHg 97%
    02:00 +19°C° 0.7 mm 2 mps 737 mmHg 97%
    03:00 +19°C° 0.7 mm 2 mps 736 mmHg 97%
    04:00 +19°C° 0.5 mm 2 mps 736 mmHg 97%
    05:00 +20°C° 0.5 mm 1 mps 736 mmHg 97%
    06:00 +20°C° 0.5 mm 1 mps 736 mmHg 97%
    07:00 +20°C° 0.5 mm 1 mps 736 mmHg 96%
    08:00 +20°C° 0.5 mm 2 mps 736 mmHg 95%
    09:00 +20°C° 0.5 mm 2 mps 736 mmHg 95%
    10:00 +21°C° 0.2 mm 2 mps 735 mmHg 93%
    11:00 +23°C° 0.2 mm 2 mps 735 mmHg 90%
    12:00 +23°C° 0.2 mm 2 mps 735 mmHg 88%
    13:00 +24°C° 0.5 mm 2 mps 734 mmHg 87%
    14:00 +24°C° 0.5 mm 2 mps 734 mmHg 86%
    15:00 +24°C° 0.5 mm 2 mps 734 mmHg 85%
    16:00 +23°C° 0.7 mm 2 mps 733 mmHg 89%
    17:00 +21°C° 0.7 mm 2 mps 733 mmHg 92%
    18:00 +22°C° 0.7 mm 1 mps 733 mmHg 95%
    19:00 +20°C° 0.3 mm 2 mps 733 mmHg 95%
    20:00 +20°C° 0.3 mm 2 mps 732 mmHg 95%
    21:00 +19°C° 0.3 mm 2 mps 732 mmHg 96%
    22:00 +19°C° 0 mm 2 mps 732 mmHg 96%
    23:00 +19°C° 0 mm 2 mps 731 mmHg 96%

    20 June, Thursday

    Time Temperature Precipitation Wind Pressure Humidity
    00:00 +18°C° 0 mm 3 mps 731 mmHg 96%
    01:00 +18°C° 0 mm 3 mps 730 mmHg 96%
    02:00 +18°C° 0 mm 3 mps 730 mmHg 97%
    03:00 +18°C° 0 mm 3 mps 730 mmHg 97%
    04:00 +18°C° 0 mm 4 mps 731 mmHg 97%
    05:00 +18°C° 0 mm 4 mps 731 mmHg 97%
    06:00 +18°C° 0 mm 4 mps 732 mmHg 96%
    07:00 +18°C° 0 mm 4 mps 732 mmHg 95%
    08:00 +18°C° 0 mm 4 mps 732 mmHg 94%
    09:00 +19°C° 0 mm 5 mps 733 mmHg 93%
    10:00 +19°C° 0 mm 4 mps 733 mmHg 91%
    11:00 +20°C° 0 mm 4 mps 734 mmHg 88%
    12:00 +21°C° 0 mm 4 mps 734 mmHg 86%
    13:00 +21°C° 0.1 mm 4 mps 734 mmHg 85%
    14:00 +22°C° 0.1 mm 4 mps 734 mmHg 84%
    15:00 +22°C° 0.1 mm 4 mps 734 mmHg 83%
    16:00 +22°C° 0 mm 4 mps 734 mmHg 84%
    17:00 +21°C° 0 mm 3 mps 735 mmHg 85%
    18:00 +21°C° 0 mm 3 mps 735 mmHg 86%
    19:00 +20°C° 0 mm 3 mps 735 mmHg 89%
    20:00 +18°C° 0 mm 2 mps 736 mmHg 92%
    21:00 +17°C° 0 mm 2 mps 736 mmHg 95%
    22:00 +16°C° 0 mm 1 mps 736 mmHg 95%
    23:00 +16°C° 0 mm 1 mps 736 mmHg 95%

    21 June, Friday

    Time Temperature Precipitation Wind Pressure Humidity
    00:00 +14°C° 0 mm 0 mps 737 mmHg 94%
    01:00 +15°C° 0 mm 1 mps 737 mmHg 95%
    02:00 +15°C° 0 mm 1 mps 737 mmHg 95%
    03:00 +15°C° 0 mm 1 mps 737 mmHg 95%
    04:00 +15°C° 0 mm 1 mps 738 mmHg 95%
    05:00 +16°C° 0 mm 2 mps 738 mmHg 95%
    06:00 +16°C° 0 mm 2 mps 738 mmHg 95%
    07:00 +18°C° 0 mm 2 mps 738 mmHg 90%
    08:00 +19°C° 0 mm 2 mps 739 mmHg 86%
    09:00 +21°C° 0 mm 3 mps 739 mmHg 81%
    10:00 +22°C° 0 mm 3 mps 739 mmHg 79%
    11:00 +24°C° 0 mm 3 mps 739 mmHg 77%
    12:00 +25°C° 0 mm 3 mps 739 mmHg 75%
    13:00 +25°C° 0 mm 3 mps 739 mmHg 77%
    14:00 +23°C° 0 mm 4 mps 738 mmHg 79%
    15:00 +23°C° 0 mm 5 mps 738 mmHg 81%
    16:00 +23°C° 0.1 mm 5 mps 737 mmHg 83%
    17:00 +23°C° 0.1 mm 5 mps 737 mmHg 85%
    18:00 +23°C° 0.1 mm 5 mps 737 mmHg 87%
    19:00 +22°C° 1.1 mm 5 mps 737 mmHg 89%
    20:00 +21°C° 1.1 mm 4 mps 737 mmHg 92%
    21:00 +21°C° 1.1 mm 4 mps 737 mmHg 95%
    22:00 +21°C° 6.3 mm 4 mps 737 mmHg 95%
    23:00 +21°C° 6.3 mm 5 mps 736 mmHg 96%
    Show more